Chandler, OK

11:41 AM CDT on August 20, 2017 (GMT -0500)
Chandler Municipal

Weather History for KCQB - January, 2013

Change the Weather History Date:

Thursday, January 3, 2013

  Actual Average (KCUH) Record (KCUH)
Temperature  
Mean Temperature 36 °F -  
Max Temperature 46 °F 46 °F 77 °F (2006)
Min Temperature 26 °F 25 °F 4 °F (1979)
Degree Days  
Heating Degree Days 29    
Moisture  
Dew Point 30 °F    
Average Humidity 85    
Maximum Humidity 100    
Minimum Humidity 53    
Precipitation  
Precipitation 0.00 in - - ()
Sea Level Pressure  
Sea Level Pressure 30.41 in    
Wind  
Wind Speed 5 mph (NW)    
Max Wind Speed 9 mph    
Max Gust Speed -    
Visibility 10 miles    
Events      
Averages and records for this station are not official NWS values.
T = Trace of Precipitation, MM = Missing Value Source: NWS Daily Summary

Daily Weather History Graph

Daily Weather History Graph

Search for Another Location

Airport or City:

Trip Planner

Search our weather history database for the weather conditions in past years. The results will help you decide how hot, cold, wet, or windy it might be!

Date:

Astronomy

Jan. 03, 2013 Rise Set
Actual Time 7:37 AM CST 5:26 PM CST
Civil Twilight 7:09 AM CST 5:54 PM CST
Nautical Twilight 6:37 AM CST 6:26 PM CST
Astronomical Twilight 6:06 AM CST 6:57 PM CST
Moon 11:48 PM CST (1/3) 11:02 AM CST (1/3)
Length of Visible Light 10h 45m
Length of Day
9h 49m
Waning Gibbous, 65% of the Moon is Illuminated
Jan 3
Waning Gibbous
Jan 4
Last Quarter
Jan 11
New
Jan 18
First Quarter
Jan 26
Full

Hourly Weather History & Observations

Time (CST) Temp. Windchill Dew Point Humidity Pressure Visibility Wind Dir Wind Speed Gust Speed Precip Events Conditions
12:15 AM 32.0 °F - 30.2 °F 93% 30.32 in 10.0 mi Calm Calm - N/A   Clear
12:35 AM 32.0 °F - 32.0 °F 100% 30.32 in 10.0 mi Calm Calm - N/A   Clear
12:55 AM 32.0 °F 27.5 °F 32.0 °F 100% 30.32 in 10.0 mi West 4.6 mph - N/A   Clear
1:15 AM 32.0 °F 27.5 °F 30.2 °F 93% 30.32 in 10.0 mi WNW 4.6 mph - N/A   Clear
1:35 AM 32.0 °F 28.7 °F 30.2 °F 93% 30.33 in 10.0 mi West 3.5 mph - N/A   Clear
1:55 AM 32.0 °F 27.5 °F 32.0 °F 100% 30.34 in 10.0 mi West 4.6 mph - N/A   Clear
2:15 AM 30.2 °F 24.3 °F 30.2 °F 100% 30.34 in 10.0 mi WNW 5.8 mph - N/A   Clear
2:35 AM 32.0 °F 27.5 °F 30.2 °F 93% 30.35 in 10.0 mi WNW 4.6 mph - N/A   Clear
2:55 AM 30.2 °F 25.4 °F 30.2 °F 100% 30.35 in 10.0 mi WNW 4.6 mph - N/A   Clear
3:15 AM 30.2 °F 25.4 °F 30.2 °F 100% 30.35 in 10.0 mi West 4.6 mph - N/A   Clear
3:35 AM 30.2 °F 23.4 °F 30.2 °F 100% 30.36 in 10.0 mi WNW 6.9 mph - N/A   Clear
3:55 AM 30.2 °F 23.4 °F 30.2 °F 100% 30.36 in 10.0 mi WNW 6.9 mph - N/A   Clear
4:15 AM 30.2 °F 25.4 °F 30.2 °F 100% 30.37 in 10.0 mi WNW 4.6 mph - N/A   Clear
4:35 AM 30.2 °F 25.4 °F 30.2 °F 100% 30.37 in 10.0 mi WNW 4.6 mph - N/A   Clear
4:55 AM 30.2 °F 25.4 °F 30.2 °F 100% 30.37 in 10.0 mi NW 4.6 mph - N/A   Clear
5:15 AM 30.2 °F 26.7 °F 30.2 °F 100% 30.37 in 10.0 mi NW 3.5 mph - N/A   Clear
5:35 AM 30.2 °F 25.4 °F 30.2 °F 100% 30.37 in 10.0 mi NW 4.6 mph - N/A   Clear
5:55 AM 28.4 °F 23.3 °F 28.4 °F 100% 30.38 in 10.0 mi WNW 4.6 mph - N/A   Clear
6:15 AM 28.4 °F 22.2 °F 28.4 °F 100% 30.39 in 10.0 mi West 5.8 mph - N/A   Clear
6:35 AM 26.6 °F 19.1 °F 26.6 °F 100% 30.39 in 10.0 mi West 6.9 mph - N/A   Clear
6:55 AM 26.6 °F 20.0 °F 26.6 °F 100% 30.40 in 10.0 mi WNW 5.8 mph - N/A   Clear
7:15 AM 26.6 °F 19.1 °F 26.6 °F 100% 30.40 in 10.0 mi WNW 6.9 mph - N/A   Clear
7:35 AM 26.6 °F 18.2 °F 26.6 °F 100% 30.41 in 10.0 mi WNW 8.1 mph - N/A   Clear
7:55 AM 26.6 °F 19.1 °F 26.6 °F 100% 30.42 in 10.0 mi WNW 6.9 mph - N/A   Clear
8:15 AM 28.4 °F 22.2 °F 28.4 °F 100% 30.43 in 10.0 mi WNW 5.8 mph - N/A   Clear
8:35 AM 30.2 °F 24.3 °F 30.2 °F 100% 30.44 in 10.0 mi NW 5.8 mph - N/A   Clear
8:55 AM 32.0 °F 24.8 °F 30.2 °F 93% 30.45 in 10.0 mi NW 8.1 mph - N/A   Clear
9:15 AM 32.0 °F 24.8 °F 30.2 °F 93% 30.45 in 10.0 mi NNW 8.1 mph - N/A   Clear
9:35 AM 32.0 °F 24.8 °F 30.2 °F 93% 30.45 in 10.0 mi NNW 8.1 mph - N/A   Clear
9:55 AM 33.8 °F 27.0 °F 32.0 °F 93% 30.46 in 10.0 mi NNW 8.1 mph - N/A   Clear
10:15 AM 33.8 °F 27.7 °F 32.0 °F 93% 30.46 in 10.0 mi NW 6.9 mph - N/A   Clear
10:35 AM 35.6 °F 30.7 °F 32.0 °F 87% 30.47 in 10.0 mi NW 5.8 mph - N/A   Clear
10:55 AM 37.4 °F 33.8 °F 32.0 °F 81% 30.47 in 10.0 mi North 4.6 mph - N/A   Clear
11:15 AM 37.4 °F 34.9 °F 32.0 °F 81% 30.46 in 10.0 mi North 3.5 mph - N/A   Clear
11:35 AM 39.2 °F - 32.0 °F 75% 30.45 in 10.0 mi Calm Calm - N/A   Clear
11:55 AM 41.0 °F 38.0 °F 32.0 °F 70% 30.44 in 10.0 mi NNW 4.6 mph - N/A   Clear
12:15 PM 42.8 °F 40.1 °F 32.0 °F 66% 30.43 in 10.0 mi NNW 4.6 mph - N/A   Clear
12:35 PM 42.8 °F 39.3 °F 32.0 °F 66% 30.42 in 10.0 mi WNW 5.8 mph - N/A   Clear
12:55 PM 44.6 °F 43.1 °F 32.0 °F 61% 30.42 in 10.0 mi NE 3.5 mph - N/A   Clear
1:15 PM 44.6 °F 41.4 °F 32.0 °F 61% 30.41 in 10.0 mi WNW 5.8 mph - N/A   Clear
1:35 PM 44.6 °F 41.4 °F 32.0 °F 61% 30.40 in 10.0 mi North 5.8 mph - N/A   Scattered Clouds
1:55 PM 44.6 °F 40.2 °F 32.0 °F 61% 30.41 in 10.0 mi NW 8.1 mph - N/A   Scattered Clouds
2:15 PM 46.4 °F 42.9 °F 32.0 °F 57% 30.40 in 10.0 mi North 6.9 mph - N/A   Clear
2:35 PM 46.4 °F - 30.2 °F 53% 30.40 in 10.0 mi North - - N/A   Clear
2:55 PM 46.4 °F 42.4 °F 32.0 °F 57% 30.40 in 10.0 mi NNW 8.1 mph - N/A   Clear
3:15 PM 46.4 °F 41.9 °F 30.2 °F 53% 30.40 in 10.0 mi WNW 9.2 mph - N/A   Clear
3:35 PM 46.4 °F 42.4 °F 32.0 °F 57% 30.41 in 10.0 mi West 8.1 mph - N/A   Clear
3:55 PM 44.6 °F 40.2 °F 32.0 °F 61% 30.41 in 10.0 mi WNW 8.1 mph - N/A   Clear
4:15 PM 44.6 °F 40.7 °F 32.0 °F 61% 30.42 in 10.0 mi NW 6.9 mph - N/A   Clear
4:35 PM 42.8 °F - 32.0 °F 66% 30.42 in 10.0 mi North - - N/A   Clear
4:55 PM 42.8 °F 38.6 °F 30.2 °F 61% 30.42 in 10.0 mi NW 6.9 mph - N/A   Clear
5:15 PM 41.0 °F 37.1 °F 30.2 °F 65% 30.42 in 10.0 mi NW 5.8 mph - N/A   Clear
5:35 PM 37.4 °F 32.8 °F 30.2 °F 75% 30.42 in 10.0 mi NW 5.8 mph - N/A   Clear
5:55 PM 37.4 °F 32.8 °F 30.2 °F 75% 30.43 in 10.0 mi NW 5.8 mph - N/A   Clear
6:15 PM 37.4 °F 32.1 °F 30.2 °F 75% 30.43 in 10.0 mi NW 6.9 mph - N/A   Clear
6:35 PM 35.6 °F 29.9 °F 30.2 °F 81% 30.44 in 10.0 mi NW 6.9 mph - N/A   Clear
6:55 PM 35.6 °F 29.2 °F 30.2 °F 81% 30.44 in 10.0 mi NW 8.1 mph - N/A   Clear
7:15 PM 35.6 °F 29.9 °F 30.2 °F 81% 30.44 in 10.0 mi NW 6.9 mph - N/A   Clear
7:35 PM 33.8 °F 27.7 °F 30.2 °F 87% 30.44 in 10.0 mi NNW 6.9 mph - N/A   Clear
7:55 PM 32.0 °F 26.4 °F 28.4 °F 87% 30.45 in 10.0 mi NNW 5.8 mph - N/A   Clear
8:15 PM 32.0 °F 27.5 °F 28.4 °F 87% 30.44 in 10.0 mi North 4.6 mph - N/A   Clear
8:35 PM 32.0 °F 28.7 °F 28.4 °F 87% 30.44 in 10.0 mi NNW 3.5 mph - N/A   Clear
8:55 PM 32.0 °F 28.7 °F 28.4 °F 87% 30.44 in 10.0 mi NNW 3.5 mph - N/A   Clear
9:15 PM 32.0 °F - 28.4 °F 87% 30.45 in 10.0 mi Calm Calm - N/A   Clear
9:35 PM 32.0 °F - 28.4 °F 87% 30.45 in 10.0 mi Calm Calm - N/A   Clear
9:55 PM 32.0 °F - 28.4 °F 87% 30.45 in 10.0 mi Calm Calm - N/A   Clear
10:15 PM 30.2 °F 24.3 °F 28.4 °F 93% 30.46 in 10.0 mi SSW 5.8 mph - N/A   Clear
10:35 PM 30.2 °F 25.4 °F 28.4 °F 93% 30.47 in 10.0 mi SW 4.6 mph - N/A   Clear
10:55 PM 30.2 °F 26.7 °F 28.4 °F 93% 30.46 in 10.0 mi West 3.5 mph - N/A   Clear
11:15 PM 30.2 °F 25.4 °F 28.4 °F 93% 30.45 in 10.0 mi WSW 4.6 mph - N/A   Clear
11:35 PM 30.2 °F 25.4 °F 28.4 °F 93% 30.47 in 10.0 mi West 4.6 mph - N/A   Clear
11:55 PM 30.2 °F 23.4 °F 28.4 °F 93% 30.47 in 10.0 mi West 6.9 mph - N/A   Clear